Dewpoint
20 21 23 25 26 28 32 36 42 47 56 55 55 54 53 53 52 52 52 51 49 48 47 43 39 33 31 33 31 28 27 26 20 25 26 27 29 29 31 35 33 33 33
20 20 22 24 25 26 29 32 39 44 56 56 55 54 54 53 53 52 51 50 49 47 45 41 38 34 33 32 32 29 28 30 24 21 26 25 27 29 30 32 32 31 31
19 20 21 23 24 24 26 30 34 40 54 55 55 54 54 53 52 52 51 49 48 46 44 41 39 35 33 32 32 30 32 32 27 25 24 26 26 27 27 28 29 29 29
18 19 20 21 23 23 24 28 32 38 49 54 54 54 54 53 52 52 51 49 47 46 43 41 40 35 35 33 31 31 31 32 28 25 25 24 25 26 26 25 24 26 25
17 18 19 20 22 23 23 27 30 34 41 54 54 54 54 53 52 51 50 48 46 45 42 41 40 36 35 33 32 31 31 31 29 25 25 25 25 24 23 24 23 24 25
16 17 18 19 20 22 22 25 29 33 39 53 53 53 52 52 51 50 49 47 46 44 43 42 42 41 38 34 32 32 31 30 29 26 26 24 24 25 25 24 23 22 20
15 16 17 18 18 20 21 24 27 31 36 49 52 52 51 51 50 49 48 47 45 44 43 40 38 36 35 33 34 33 33 32 31 28 24 24 23 25 25 25 24 23 22
15 15 16 16 17 19 20 22 25 29 33 38 51 51 51 51 49 48 47 47 44 43 41 38 37 35 34 33 32 32 31 33 31 29 27 26 26 27 27 26 25 26 26
13 14 15 16 16 18 19 21 24 27 30 35 48 50 50 50 48 47 46 46 44 43 42 40 38 36 35 35 33 32 30 30 32 29 28 28 28 30 29 27 24 23 23
12 13 15 16 16 17 19 21 24 27 29 33 37 49 49 49 47 46 46 46 44 43 41 40 39 37 37 37 36 35 33 31 30 30 31 32 32 33 32 27 27 23 24
13 13 14 16 16 18 20 22 23 26 28 32 36 44 48 49 46 46 45 46 44 42 40 39 39 38 39 40 39 37 38 33 32 29 29 32 33 33 30 29 29 26 23
12 13 14 15 16 18 20 21 23 25 28 31 35 40 47 47 46 45 45 46 45 43 41 40 40 41 40 40 40 37 35 33 32 30 30 30 30 28 27 26 25 24 25
11 11 13 15 16 19 20 20 21 24 27 28 31 38 43 45 45 45 45 45 44 43 41 40 39 41 40 40 41 41 38 34 32 30 29 29 28 26 24 24 24 23 22
10 11 12 14 17 18 18 20 20 23 25 28 28 31 40 42 43 44 44 44 44 42 39 37 37 39 40 40 41 41 37 35 33 30 30 27 25 23 22 21 20 20 18
9 10 12 13 16 17 17 20 21 24 28 28 29 29 30 39 41 43 44 43 42 40 39 38 38 38 38 38 39 36 33 33 32 30 28 26 24 22 20 21 20 19 17
8 10 11 14 16 16 17 17 20 24 27 30 32 32 32 33 36 42 43 43 41 40 39 38 37 37 37 37 36 34 32 32 30 29 28 26 24 23 21 21 20 19 17
8 9 12 14 14 15 16 16 16 19 24 27 30 31 33 33 36 41 43 43 42 40 38 37 37 37 37 37 36 35 32 32 31 29 28 27 25 24 22 20 18 17 15
9 12 13 13 15 15 16 16 17 17 18 21 25 29 32 33 34 38 42 42 40 39 38 37 36 37 37 37 37 35 33 31 30 30 29 27 26 25 22 20 18 16 14
9 11 13 15 15 16 15 15 16 17 19 20 24 26 29 32 33 36 41 40 39 38 38 37 37 37 37 36 35 34 33 32 31 31 30 28 27 25 22 20 18 17 13
10 12 12 12 12 12 14 14 15 17 18 20 22 24 27 30 30 32 37 39 39 38 38 37 37 37 37 36 35 34 32 32 32 31 30 29 26 25 22 19 18 18 12
10 11 9 9 11 11 12 14 16 16 17 18 21 24 28 29 29 30 34 38 39 38 38 37 37 37 37 36 35 33 32 32 31 30 29 27 25 23 21 20 18 14 12
11 7 8 9 10 10 12 16 15 16 17 18 19 22 25 24 26 31 32 37 39 39 39 38 38 38 37 36 35 33 33 32 31 29 27 26 24 22 20 18 15 13 15
6 6 7 8 9 11 12 13 14 15 16 18 19 20 21 22 24 29 32 34 35 36 37 37 37 37 37 36 35 35 33 32 30 29 27 25 23 21 19 15 14 14 13
4 4 6 7 8 11 10 12 13 15 16 16 18 19 19 20 22 25 30 32 33 34 35 36 36 35 35 35 35 35 34 32 30 29 27 25 22 20 17 15 14 14 15
2 3 4 5 6 7 9 10 12 14 15 16 17 18 19 20 21 23 26 30 31 32 33 34 34 34 34 34 34 33 32 31 30 29 27 25 21 18 15 15 14 15 16
1 2 3 5 6 7 8 9 11 12 13 15 16 17 18 19 20 21 23 26 28 30 31 31 32 32 32 32 32 31 31 30 29 27 25 21 18 16 15 15 15 15 14
Wind_Speed
23 22 23 21 22 18 19 23 20 26 22 25 28 26 28 28 27 28 26 30 29 25 23 23 22 16 16 12 7 7 8 5 5 2 2 2 3 11 12 11 10 11 9
22 22 23 22 20 18 19 23 19 23 24 25 29 29 30 29 28 30 27 23 30 30 27 24 23 18 19 17 15 15 11 6 4 8 4 4 2 6 11 11 8 10 9
23 23 24 22 21 19 21 22 21 20 23 22 26 29 29 30 29 29 28 26 28 27 28 28 26 24 21 20 20 18 11 8 4 6 6 2 4 5 5 2 6 8 7
22 22 24 22 22 21 23 24 21 20 22 27 25 27 25 26 27 28 27 25 26 26 25 25 26 26 26 25 23 21 16 13 7 9 6 7 4 3 8 8 10 6 7
21 22 23 23 21 21 23 23 21 19 24 29 28 28 29 28 26 27 27 26 25 23 22 22 21 22 25 24 23 21 21 18 14 14 8 5 6 7 12 9 6 3 2
23 21 23 22 22 21 23 24 23 18 22 24 29 27 27 27 31 33 31 27 25 25 25 23 21 24 25 27 27 25 27 26 20 15 11 13 13 8 12 10 8 5 5
23 24 22 21 21 21 22 24 23 16 19 17 27 28 29 29 32 34 34 27 28 27 25 25 23 22 26 23 25 25 26 25 23 23 21 16 14 17 16 12 10 8 6
21 23 24 24 24 22 23 24 23 16 18 11 24 27 28 28 34 37 36 28 26 27 27 27 28 25 26 24 24 22 21 20 19 17 14 13 6 15 12 11 13 8 4
19 22 24 24 24 23 23 26 25 18 19 10 16 27 25 24 33 39 36 28 25 26 25 25 26 25 27 27 23 24 19 17 12 14 10 7 10 16 15 16 12 9 6
22 24 23 22 21 22 22 25 22 19 19 15 12 23 30 28 35 39 39 27 25 23 22 22 27 25 29 33 27 25 23 22 21 13 11 10 11 14 16 5 15 11 5
22 23 24 22 21 19 20 21 21 21 17 17 9 9 25 26 29 41 43 29 27 25 24 22 22 26 32 34 30 24 29 19 19 20 17 14 12 13 9 6 8 5 7
20 23 22 22 21 20 21 21 21 18 16 14 4 5 19 22 28 38 42 34 29 28 26 23 23 33 34 35 31 27 22 22 19 20 20 17 17 14 11 10 12 9 7
21 21 22 22 20 19 20 21 21 18 15 11 5 6 14 19 22 35 41 36 30 25 22 23 26 36 35 33 32 24 25 20 19 21 22 17 13 15 16 16 14 15 16
21 23 20 20 23 20 17 15 18 18 16 14 10 7 6 15 18 21 26 29 24 19 20 22 22 26 27 25 25 22 20 21 23 21 17 15 15 14 16 12 11 12 8
18 20 21 20 20 21 19 19 22 21 16 16 9 6 7 15 19 22 25 26 23 22 21 20 21 22 22 20 19 19 18 20 21 20 21 20 17 17 13 10 11 11 6
17 16 18 19 19 18 18 23 24 25 23 17 11 7 8 13 12 25 28 29 31 33 24 24 23 25 26 25 24 23 22 23 20 20 20 22 21 19 19 12 13 10 11
16 17 16 18 18 18 17 19 25 30 24 17 16 13 11 13 12 16 28 29 32 34 22 24 24 25 23 26 27 26 25 21 20 21 21 21 20 18 20 19 15 13 11
16 20 15 16 17 17 16 16 16 19 21 18 16 15 10 9 9 13 27 29 29 32 26 25 23 23 23 24 25 24 23 22 23 21 20 21 20 22 21 20 18 16 16
16 15 16 15 16 18 15 14 16 19 17 16 14 13 12 14 8 12 20 24 25 28 24 23 22 23 24 24 23 22 24 24 23 22 21 22 21 22 20 19 18 18 16
15 18 20 16 16 16 14 14 16 17 18 15 13 12 11 8 5 11 15 20 21 24 24 22 23 24 24 23 22 23 23 24 24 22 23 22 21 21 22 22 20 21 16
15 12 20 14 14 15 15 14 13 16 16 15 13 14 16 11 10 9 14 18 20 23 24 24 24 24 24 24 25 25 26 25 24 22 24 22 22 22 21 20 18 18 20
9 14 14 14 14 14 15 12 14 15 16 14 15 14 16 11 10 9 14 15 18 19 21 23 22 23 25 27 27 28 27 27 26 24 23 24 23 23 22 22 21 20 19
13 14 14 13 13 17 13 12 12 15 15 14 13 12 11 11 13 9 10 10 14 17 17 20 21 19 19 21 23 27 30 30 29 29 30 27 26 25 24 25 23 21 20
13 13 13 14 13 15 14 14 14 16 15 13 13 12 11 12 13 10 1 10 13 14 16 18 20 24 22 21 21 22 23 24 26 30 33 31 29 29 25 25 23 22 23
11 12 12 12 13 14 14 13 13 15 15 13 12 11 11 12 12 10 6 2 9 14 15 15 17 22 26 27 25 25 27 34 31 32 28 30 33 32 29 25 25 23 22
14 12 12 11 12 12 13 13 13 15 15 14 13 14 13 13 12 10 7 3 6 10 13 14 18 23 26 27 28 31 37 37 36 36 32 32 32 28 27 29 28 24 24
Wind_Direction
322 321 312 308 305 307 298 286 266 276 218 194 177 176 176 181 185 187 194 174 180 181 188 191 192 171 190 205 183 188 186 164 170 147 144 167 182 189 189 198 195 219 222
317 317 312 309 308 311 303 289 290 277 215 199 184 181 179 181 183 185 181 182 181 182 184 185 190 182 188 189 190 202 198 173 148 164 160 175 109 208 184 186 188 225 225
320 321 316 311 314 314 306 295 288 277 218 195 185 184 182 184 185 189 186 181 182 184 185 184 192 185 190 189 195 198 190 180 152 134 149 156 92 190 143 133 199 228 241
323 320 313 314 314 316 309 296 288 282 255 191 187 178 184 189 185 188 186 184 186 188 190 188 191 189 192 189 192 192 180 180 167 159 144 154 156 185 114 191 211 216 238
321 321 312 312 315 316 311 305 299 292 283 189 188 189 189 188 187 187 185 183 183 186 186 187 190 192 196 190 187 185 179 181 170 172 166 139 163 168 181 183 190 171 236
318 319 314 315 321 317 318 311 299 293 274 198 186 186 188 191 190 188 183 182 182 185 185 190 190 191 200 192 193 185 178 181 181 176 176 182 191 191 166 159 163 165 231
319 318 317 317 317 318 322 311 299 304 284 227 186 185 193 193 187 187 186 186 183 188 188 190 187 191 190 193 194 186 186 187 177 183 190 196 183 195 160 158 173 179 187
318 319 319 322 318 323 328 313 303 312 293 297 189 188 192 193 184 185 184 184 186 189 188 187 185 182 188 184 183 186 192 188 185 185 202 207 201 169 163 168 170 144 105
321 321 320 318 321 323 321 312 309 314 299 278 224 179 188 193 185 184 181 186 187 188 189 187 184 183 185 175 180 184 185 185 181 189 184 157 145 160 147 124 150 164 208
323 318 314 313 318 316 313 311 307 304 295 285 287 185 193 190 184 186 184 188 186 184 187 185 181 180 179 178 183 184 188 196 182 158 126 125 135 155 152 142 164 187 143
315 316 316 318 310 308 311 307 308 304 296 278 249 225 182 184 187 187 186 188 186 180 183 181 180 174 178 186 188 188 198 185 170 162 146 142 143 142 139 117 144 143 181
316 315 317 317 315 319 314 320 316 303 299 292 263 248 184 180 182 190 190 190 184 184 186 184 181 179 182 187 186 193 179 154 154 155 160 164 163 151 132 113 93 88 73
317 317 317 316 316 319 323 326 320 315 305 312 356 215 183 181 184 190 194 191 183 183 180 180 178 181 182 186 192 184 170 164 162 166 177 174 162 147 122 100 93 91 79
314 316 318 317 321 326 331 322 320 309 313 322 346 2 184 187 184 188 193 192 180 177 169 163 164 172 180 187 190 180 179 180 180 177 167 144 135 136 139 132 135 126 116
314 314 316 318 319 329 327 327 319 309 307 308 331 328 309 203 194 184 185 186 175 166 146 149 155 165 174 179 173 171 164 162 165 160 160 156 147 150 140 145 133 147 154
312 315 315 316 322 322 327 325 320 315 316 324 330 316 295 274 296 185 186 181 170 158 164 169 171 175 182 178 171 174 178 173 168 159 158 153 162 156 151 148 149 159 151
305 308 307 317 313 323 328 326 331 323 322 330 340 345 325 276 288 217 185 176 165 161 178 182 181 181 180 178 178 181 180 175 157 157 158 159 154 152 154 159 157 148 142
306 313 313 304 316 317 322 326 313 304 311 321 329 335 334 310 281 256 186 175 176 178 186 185 182 179 176 177 178 177 170 159 160 156 157 154 157 159 159 158 160 156 153
309 309 306 322 314 319 316 316 312 306 308 305 322 330 329 330 266 266 200 188 188 185 188 183 182 177 175 176 175 173 166 165 159 157 152 155 161 159 157 152 153 157 154
306 314 326 320 319 314 314 313 312 315 310 317 317 308 306 314 297 232 222 198 194 186 187 182 178 177 173 173 167 164 159 158 157 159 156 157 159 159 154 152 155 157 160
303 306 321 319 310 307 305 306 309 310 308 307 312 308 318 320 282 249 226 213 198 189 184 185 179 174 173 170 166 164 165 162 161 160 152 153 153 151 147 147 149 144 143
318 317 315 309 307 304 302 317 315 308 305 314 312 309 333 334 307 260 225 219 199 189 182 177 174 174 172 168 170 165 164 164 157 154 152 149 147 144 144 145 144 143 142
330 316 311 307 305 307 312 317 314 309 307 312 310 314 332 339 316 305 195 176 162 157 158 165 164 168 168 168 172 170 168 169 164 156 152 149 147 146 148 147 147 144 144
321 313 310 308 313 320 318 316 321 312 314 313 306 325 345 341 318 323 267 162 143 138 151 159 166 168 163 165 170 170 165 159 156 156 150 148 146 145 145 145 146 143 139
329 323 316 312 314 311 310 314 322 312 313 315 323 322 353 333 330 342 357 116 153 159 160 161 164 168 163 161 164 159 156 153 153 152 148 147 146 146 146 143 141 138 137
338 328 317 309 308 311 313 317 323 311 314 318 331 342 349 340 335 344 359 67 136 148 161 167 167 163 160 154 151 147 148 148 147 146 142 140 140 141 140 138 136 136 136